Weather Roundup
Issued by NWS Chicago, IL

Home | Current Version | Previous Version | Text Only | Print | Product List | Glossary Off
Versions: 1 2 3 4 5 6 7 8 9 10 11 12 13 14 15 16 17 18 19 20 21 22 23 24 25 26 27 28 29 30 31 32 33 34 35 36 37 38 39 40 41 42 43 44 45 46 47 48 49 50

000
NZUS59 KLOT 270210
HRRLOT

CHICAGO AREA WEATHER ROUNDUP
NATIONAL WEATHER SERVICE CHICAGO/ROMEOVILLE IL
800 PM CST MON JAN 26 2015

NOTE: "FAIR" INDICATES FEW OR NO CLOUDS BELOW 12,000 FEET WITH NO
SIGNIFICANT WEATHER AND/OR OBSTRUCTIONS TO VISIBILITY.

* THESE STATIONS ARE NOT UNDER NWS QUALITY CONTROL. THEY ALSO MAY NOT
  REPORT WEATHER SUCH AS PRECIPITATION OR FOG.

ILZ005-006-012>014-019>023-270300-
NORTHEAST ILLINOIS

CITY           SKY/WX    TMP DP  RH WIND       PRES   REMARKS
OHARE          FRZ DRZL  25  24  96 S5        29.90R FOG     WCI  19
MIDWAY         FRZ DRZL  27  24  89 VRB6      29.91S FOG     WCI  20
AURORA         CLOUDY    27  24  89 SE7       29.89S FOG     WCI  19
LANSING*       LGT SNOW  26  25  95 S6        29.91F WCI  19
JOLIET*        LGT RAIN  26  25  96 SE5       29.91R WCI  20
WAUKEGAN       LGT SNOW  25  23  92 SE3       29.89S FOG
DUPAGE AIRPORT CLOUDY    26  24  92 S6        29.88S FOG     WCI  19
WHEELING       LGT SNOW  26  24  92 S6        29.92R FOG     WCI  19
KANKAKEE*      CLOUDY    27  26  96 S5        29.91F FOG     WCI  22
MORRIS*        MIX PCPN  28  28 100 S6        29.89S WCI  22
LEWIS AIRPORT* LGT RAIN  26  26  99 S7        29.90S WCI  18
NORTHERLY IS     N/A     26  23  88 S6          N/A  WCI  20
$$

WIZ051-052-058>065-066-070>072-270300-
SOUTHEAST WISCONSIN

CITY           SKY/WX    TMP DP  RH WIND       PRES   REMARKS
MILWAUKEE      LGT SNOW  25  21  85 SE5       29.90S WCI  19
KENOSHA*       LGT SNOW  26  23  88 S3        29.89S FOG
RACINE*        LGT SNOW  27  23  85 S6        29.91S FOG     WCI  20
BURLINGTON     LGT SNOW  23  22  96 S3        29.89S
WAUKESHA       LGT SNOW  23  21  93 SE7       29.89R WCI  15
WEST BEND      CLOUDY    25  21  86 CALM      29.88S
$$

INZ001>003-010>013-019-020-270300-
NORTHWEST INDIANA

CITY           SKY/WX    TMP DP  RH WIND       PRES   REMARKS
GARY*          LGT SNOW  28  21  74 SE5       29.92S WCI  23
MICHIGAN CITY* NOT AVBL
RENSSELAER*    NOT AVBL
VALPARAISO     CLOUDY    23  19  85 SE5       29.92S WCI  17
$$

LMZ740>746-270300-
SOUTHERN LAKE MICHIGAN

STATION/POSITION TIME  SKY/WX   TEMP WIND        PRES    VSBY
                                AIR  DIR/SP/G
                 (UTC)          (F)  (DEG/KT/KT) (MB)    (MI)
HARRISON CRIB    0200            26  180/  9/ 11   N/A
BURNHAM HARBOR   0200            26  140/  5/  8   N/A
CALUMET HARBOR   0200            26                N/A
BURNS HARBOR     NOT AVBL
MICHIGAN CITY    0200            24  130/  7/  8   N/A
$$

ABBREVIATIONS USED IN REMARKS
   TC - TEMPERATURE IN CELSIUS
  WCI - WIND CHILL INDEX
   HX - HEAT INDEX
  VSB - VISIBILITY
$$



USA.gov is the U.S. government's official web portal to all federal, state and local government web resources and services.